FENGYUN 1C DEB, 30052

Orbit data source: Space-Track

FENGYUN 1C DEB, 30052 is space debris in SSO originally from a launch on Mon, 10 May 1999 UTC launched from the Taiyaun Space Center, China (TSC). Fengyun 1C debris stems from the Chinese weather satellite Fengyun-1C, which was intentionally destroyed by a Chinese anti-satellite missile in 2007. This event dramatically increased the amount of space debris, with thousands of trackable fragments posing hazards to satellites and human spaceflight. The Fengyun 1C debris cloud has become a focal point in discussions about space sustainability and the need for international regulations to prevent the creation of new debris.

Loading next visibility...
Identifier
30052, 1999-025PD
Orbit
SSO
Country
Flag of CNCN / PRC
Related business
Manufacturer
Unknown
Mission
Spacecraft
Bus & Motor
Unknown
Mass
Unknown
Launch date (UTC)
1999-05-10 (26 years ago)
Launch vehicle
Unknown
Launch site
Taiyaun Space Center, China (TSC)
Object type
Payload
Rocket body
Debris
Shape & HBR
Unknown shape, 0.1 m
Radar Cross Section
Medium (>0.1 m² and <1 m²)

Expand to show TLE details & history
Last TLE update: 12 hours ago

TLE from 12 hours ago
0 FENGYUN 1C DEB
1 30052U 99025PD  25296.04332561  .00000856  00000-0  72305-3 0  9992
2 30052  99.3059 323.0146 0289637   5.3527  47.1164 13.72871548938596
Epoch: 2025-10-23T01:02Z
TLE epoch observation values (Epoch: 2025-10-23T01:02:23.332Z)
Latitude
54.00109°
Longitude
-97.25558°
Altitude
856.264 km
Speed
7.501 km/s
True Right ascension
20h 40m 11s
True Declination
53° 50' 23"
Sunlit
Object was in daylight at epoch
Visualization orbit readout
Latitude
Unknown
Longitude
Unknown
Altitude
Unknown
Speed
Unknown
Apparent Right ascension
Unknown
Apparent Declination
Unknown
Sunlit
N/A
Visualization observer readout
Local Sidereal Time
08:06:18
Azimuth
Unknown
Elevation
Unknown
Doppler factor
Unknown
Orbital elements
Apogee altitude
1,199.835 km
Perigee altitude
773.219 km
Semi-major axis
7,364.664 km
Eccentricity
0.02896
Inclination
99.3059°
RAAN
323.0146°
Arg. of periapsis
5.3527°
True anomaly
49.60893°
Mean anomaly
47.1164°
Eccentric anomaly
48.35653°
Mean motion
3.43411 °/min
Orbital period
104.83 mins
BSTAR
0.00072305

Documentation

Showing up to 5 results
|